User: anonymous   Login
Location: Unspecified
(0.0000°N, 0.0000°E)
Time: 13:05:07
(UTC+01:00)
Language:

ARIANE 5 R/B - Orbit

View from above orbital plane
View from above orbital plane
View from above satellite
View from above satellite

Ground track
Ground track

The orbit data is extracted from the following two-line orbital elements,

1 28787U 05028B   17345.49424157 +.00000049 +00000-0 +15378-2 0  9992
2 28787 007.3205 333.0764 7169574 329.4578 328.7352 02.26571932102105
Epoch (UTC): 11 December 2017 11:51:42
Eccentricity: 0.7169574
inclination: 7.3205°
perigee height: 552 km
apogee height: 35664 km
right ascension of ascending node: 333.0764°
argument of perigee: 329.4578°
revolutions per day: 2.26571932
mean anomaly at epoch: 328.7352°
orbit number at epoch: 10210

The dashed part of the orbit path shows where the satellite is in the earth's shadow,  

DLR